Wind_Speed
24 25 25 25 22 21 21 20 20 22 23 24 22 24 26 29 30 29 28 30 32 35 37 39 40 41 43 44 44 44 42 40 38 37 36 39 40 40 39 40 40 38 38 39 36 38 39 43 45
29 29 27 25 25 23 21 21 21 23 23 24 24 23 24 28 29 30 30 31 34 36 39 42 43 44 44 46 46 45 43 41 39 38 36 37 39 40 39 38 38 37 38 41 39 36 36 40 42
33 33 34 29 23 22 20 22 20 22 23 25 26 25 25 28 29 30 31 32 34 37 40 41 43 45 46 46 46 44 43 41 40 39 38 39 39 39 39 40 38 36 37 42 43 40 37 37 39
37 35 34 25 23 21 20 20 20 22 25 25 25 25 26 28 26 28 29 30 34 38 40 42 43 46 46 45 43 44 43 41 39 38 36 39 41 41 42 42 40 38 36 36 43 46 41 38 38
35 35 31 22 24 23 21 20 21 23 26 26 25 26 26 26 26 26 27 31 36 38 40 43 46 45 43 42 43 43 42 42 42 42 43 43 41 39 39 40 42 41 37 33 37 43 47 42 39
33 30 29 21 22 23 23 24 24 25 28 27 24 24 27 26 25 25 29 34 37 38 41 43 43 43 42 42 43 43 45 44 43 41 40 38 37 37 35 36 37 40 40 34 35 38 44 48 43
28 27 25 22 22 25 24 24 23 26 28 27 28 25 26 26 25 26 30 35 36 38 39 41 41 41 44 45 46 46 44 41 37 35 35 34 34 34 32 35 35 38 40 37 34 37 41 48 48
30 27 25 24 24 24 22 23 26 27 27 27 28 25 24 24 23 27 31 34 35 36 38 39 41 44 47 49 47 43 37 35 35 37 38 39 38 37 35 34 38 39 37 36 35 38 38 45 50
34 27 22 23 24 20 22 24 26 26 26 27 25 25 24 23 23 27 31 33 34 36 39 40 45 46 47 44 38 38 40 41 40 38 37 35 36 37 38 36 37 41 42 39 35 38 40 43 51
28 27 20 23 22 19 21 24 24 25 25 24 24 23 23 22 22 27 32 33 34 38 39 43 46 46 42 38 39 39 39 38 34 28 26 24 25 28 31 36 37 37 43 45 40 40 38 43 49
26 23 23 18 22 19 20 21 21 27 25 24 22 25 23 21 23 28 33 33 34 39 39 43 45 43 38 37 38 37 36 29 22 20 19 16 16 18 18 25 31 34 36 41 43 42 41 44 46
29 23 19 18 19 20 21 20 23 25 23 23 23 25 24 21 24 30 34 32 34 36 39 43 44 38 35 35 37 36 31 21 14 17 16 17 18 16 17 21 24 31 35 38 41 42 43 43 46
31 21 18 17 17 21 23 27 27 24 23 25 26 27 26 21 24 31 34 31 34 35 39 42 41 34 33 33 35 31 24 16 14 17 14 9 6 7 13 20 24 27 34 35 37 41 41 41 45
30 18 19 16 20 19 24 26 27 22 23 27 28 28 21 20 25 31 33 30 32 34 38 41 37 33 32 31 35 28 23 17 14 14 12 8 5 1 7 14 20 26 30 32 35 42 37 39 45
26 19 21 23 24 22 29 23 27 24 23 28 30 25 19 21 27 29 31 29 30 33 37 39 32 33 30 31 32 27 21 21 18 11 7 5 5 5 6 11 19 23 26 29 37 40 37 41 46
25 26 25 23 23 28 28 18 26 24 23 29 30 24 20 21 25 29 30 27 27 32 35 38 30 32 28 29 29 24 22 19 20 17 6 2 4 6 7 12 19 24 27 30 34 33 33 39 43
24 25 28 28 19 23 23 19 23 25 24 25 28 26 19 20 24 28 28 25 26 31 34 36 28 30 28 27 24 23 20 20 18 14 10 2 3 4 7 14 19 24 28 30 29 32 33 34 38
23 23 20 20 23 30 30 26 18 26 20 19 25 22 17 19 22 25 26 23 24 30 32 32 25 28 26 26 20 20 20 18 26 17 15 9 2 4 10 14 18 21 26 29 29 30 29 31 35
23 24 25 25 29 31 31 29 22 26 21 22 23 21 19 18 20 23 24 21 23 28 31 27 23 26 22 19 17 18 18 22 20 19 18 14 12 10 11 16 19 21 25 28 29 30 29 30 34
26 27 29 31 36 33 32 29 27 26 24 19 21 24 23 21 21 23 23 20 21 26 28 22 20 23 17 17 20 18 24 19 25 26 25 20 14 11 11 15 17 20 24 26 27 29 30 33 37
24 26 30 33 35 34 33 30 32 25 22 19 21 23 23 21 22 23 20 17 19 24 26 18 17 20 16 13 17 20 24 26 26 25 24 18 18 16 11 13 15 20 21 24 27 30 33 38 44
27 26 32 34 35 33 30 33 29 25 23 24 25 26 20 18 20 20 17 15 17 21 23 15 14 18 17 9 9 14 11 21 21 21 22 19 18 18 14 15 21 26 29 31 33 35 38 40 43
28 29 32 34 34 32 29 33 27 24 23 22 24 20 17 17 21 17 14 13 14 18 19 13 11 14 10 13 14 14 14 16 13 22 18 16 19 18 19 21 33 39 34 36 38 35 36 38 39
34 32 31 34 35 33 27 30 25 24 21 18 16 14 15 14 16 13 13 10 12 14 15 14 6 10 9 8 13 11 15 15 14 18 11 22 14 17 19 17 18 26 32 34 34 36 35 33 29
34 32 33 36 35 29 26 27 22 19 18 18 13 14 15 15 12 11 12 9 10 12 12 14 8 5 7 7 9 11 15 13 16 14 19 17 18 20 20 18 15 21 31 24 28 33 34 33 26
31 32 34 33 32 28 27 26 20 17 14 18 14 15 18 14 11 10 10 7 9 11 10 11 6 6 4 5 6 9 12 15 16 15 19 16 22 23 23 19 17 19 22 23 27 31 32 31 30
26 29 28 30 32 30 26 22 17 13 13 15 12 9 14 12 9 9 8 5 7 9 9 9 7 5 1 3 4 7 8 14 12 11 19 22 25 23 16 16 15 17 20 23 21 26 32 28 29
27 27 28 30 32 30 24 19 10 11 12 13 11 13 14 12 8 7 6 4 5 8 8 9 6 5 1 3 3 5 5 9 12 17 15 20 18 17 17 20 18 17 17 16 18 27 23 26 29
29 27 30 30 31 29 23 16 8 6 11 16 15 16 15 13 7 6 3 2 4 6 7 8 8 7 2 2 5 6 7 8 12 13 15 13 13 17 20 20 21 21 23 24 24 28 29 30 29
32 28 32 31 31 26 25 13 10 10 10 12 13 12 14 9 7 5 2 2 2 4 6 7 9 8 4 4 6 6 6 8 11 8 11 9 10 13 18 20 19 26 27 29 26 22 24 27 26
Wind_Direction
340 341 343 344 327 322 316 308 311 301 298 296 294 299 304 306 309 311 313 315 319 323 321 319 316 311 309 309 308 305 299 296 289 282 276 268 264 264 264 264 263 256 247 241 232 229 223 224 225
321 326 336 338 323 320 313 308 307 309 300 293 293 299 303 304 309 310 315 319 323 324 320 317 312 310 310 310 309 305 301 297 294 288 280 270 269 267 266 264 263 254 245 239 231 226 219 219 219
318 322 327 324 315 310 305 304 308 308 294 292 296 302 310 311 311 314 318 323 322 318 315 313 311 314 315 310 307 303 299 297 294 289 284 280 275 270 266 262 262 251 245 236 229 221 220 216 215
316 319 319 310 300 298 296 297 299 303 295 293 299 304 311 311 312 314 320 321 317 316 315 314 316 315 312 309 307 303 301 297 292 287 281 281 275 270 267 264 260 250 240 234 227 223 217 218 214
309 313 315 302 294 295 292 292 295 296 295 292 302 308 310 314 316 319 321 319 319 319 318 319 318 313 310 310 307 303 302 299 295 289 284 281 275 272 268 263 256 246 234 233 227 222 218 216 211
311 316 312 303 293 292 289 289 290 297 296 295 302 310 315 320 322 324 321 322 323 322 323 318 313 314 315 312 309 306 302 298 293 288 283 280 273 269 263 260 252 241 235 232 227 222 216 213 210
315 317 307 299 288 288 290 290 296 296 295 296 300 315 319 322 324 324 326 327 324 323 319 315 318 320 317 315 312 308 303 298 295 288 283 279 274 270 261 252 247 236 235 231 227 218 216 212 208
310 313 308 297 291 291 290 289 292 296 297 299 307 314 322 321 324 328 328 326 322 320 318 323 325 323 320 317 314 309 306 302 296 290 287 284 280 273 264 250 240 233 230 229 222 213 211 210 209
305 303 297 290 283 287 290 293 293 296 296 300 306 312 320 322 327 326 328 322 321 320 326 329 329 324 320 318 316 313 307 302 298 293 287 280 274 269 258 249 241 230 226 224 221 214 210 209 208
297 294 286 276 287 291 295 294 296 298 296 300 307 314 319 325 323 325 327 322 323 327 332 332 328 325 322 323 323 316 311 306 300 293 286 278 273 270 256 238 232 231 222 223 221 213 210 210 207
286 287 276 283 285 294 295 293 295 300 297 302 309 313 324 322 317 327 325 324 328 331 332 331 330 327 328 330 329 325 321 315 306 301 286 277 275 267 249 220 222 223 220 217 215 212 207 207 205
282 275 275 276 286 302 297 288 296 295 299 303 309 317 325 315 322 324 325 326 327 332 332 333 332 332 332 337 335 333 332 335 327 327 314 290 278 264 239 226 226 224 214 207 207 203 203 205 205
277 269 273 266 273 292 291 286 291 295 299 304 307 319 324 316 319 322 324 325 327 333 334 336 335 334 338 343 341 338 343 342 336 335 332 319 282 239 232 224 219 211 202 203 203 200 200 202 204
273 264 271 262 284 283 288 285 288 292 299 306 314 320 316 313 316 320 325 322 330 334 334 335 337 339 342 343 344 339 340 342 341 343 343 353 20 317 211 203 196 190 189 196 196 191 194 199 199
260 255 264 273 272 271 289 297 296 300 307 313 314 314 313 318 321 323 325 323 334 335 334 338 340 344 344 342 343 349 346 350 340 331 360 20 53 60 118 153 170 173 180 183 183 186 194 194 194
248 245 249 254 254 279 282 288 293 298 316 314 309 307 316 323 323 324 324 327 337 335 337 340 344 348 346 344 344 353 357 352 351 8 351 8 107 78 113 136 145 166 170 171 172 180 184 187 188
270 270 258 239 249 264 271 286 281 293 316 310 307 305 312 319 320 323 323 330 338 336 340 344 348 351 350 350 347 6 7 21 13 10 19 22 119 137 126 133 143 147 159 167 171 173 177 179 184
268 268 251 245 267 277 282 286 284 293 315 310 307 300 297 311 318 319 321 333 338 337 341 347 353 354 354 357 8 27 28 26 33 44 35 40 77 137 152 147 144 150 156 160 165 172 172 176 181
256 266 259 267 284 278 277 284 292 288 307 313 307 298 292 302 315 323 320 335 338 340 342 350 356 355 358 1 17 22 33 40 42 43 60 43 79 100 136 154 154 156 162 165 172 174 176 181 184
253 257 262 269 275 273 275 283 295 294 302 307 301 297 292 295 316 323 317 332 340 342 342 354 358 357 1 3 20 44 45 44 49 64 64 60 77 76 95 146 154 160 166 169 170 173 177 180 181
259 258 262 267 270 274 277 281 293 299 295 302 303 306 295 296 312 317 313 330 342 345 343 357 1 3 2 4 55 59 55 44 47 59 66 41 63 76 90 114 130 154 160 163 167 166 168 170 169
267 268 264 265 268 273 277 282 288 292 290 292 303 307 293 296 309 316 309 330 344 348 346 2 6 11 12 45 41 35 52 42 59 53 51 67 68 81 76 115 123 131 138 144 148 151 156 161 161
262 257 261 266 271 274 280 284 288 287 281 291 302 299 289 304 312 313 309 329 345 348 348 5 14 17 30 22 24 39 68 57 56 24 56 65 73 73 98 112 123 131 133 139 140 140 148 155 157
254 260 265 268 271 276 284 283 287 290 304 296 292 300 301 302 311 305 310 324 343 347 345 9 4 21 34 37 21 45 62 51 47 42 60 67 77 88 100 130 128 134 134 134 136 137 142 152 158
259 264 265 266 270 280 277 271 286 297 307 293 274 281 297 299 310 300 312 317 341 347 348 357 24 32 29 42 25 49 51 57 52 54 63 67 78 100 91 98 122 122 159 139 140 144 144 150 158
258 259 260 266 272 273 272 281 293 293 287 271 271 287 295 299 302 301 311 312 342 346 359 1 37 29 60 48 35 37 61 68 67 49 65 81 78 95 110 104 113 119 129 127 134 142 147 146 154
249 252 259 262 268 270 273 275 286 276 261 263 281 290 302 303 291 304 312 309 346 343 1 350 12 26 35 111 42 55 60 64 64 78 77 82 72 95 107 95 106 116 121 138 155 141 140 150 155
243 247 252 262 266 275 280 276 256 251 246 256 272 291 294 297 284 307 317 311 346 344 4 3 6 9 359 182 121 92 79 63 57 95 90 93 83 82 98 105 113 116 130 156 155 140 138 145 138
244 250 258 260 268 278 283 270 244 237 249 242 271 290 284 279 274 295 302 294 351 344 357 12 13 17 114 86 167 129 121 99 75 86 101 95 88 106 96 93 99 115 121 126 138 143 152 155 157
245 252 254 266 270 273 273 267 245 232 254 256 269 304 268 247 254 280 265 269 354 355 2 17 24 50 62 86 163 148 138 116 111 107 105 102 102 106 103 110 103 105 125 134 142 143 145 169 170
Height
5897 5898 5896 5894 5895 5893 5891 5889 5888 5885 5883 5881 5877 5874 5871 5867 5863 5864 5857 5855 5853 5850 5846 5842 5838 5834 5829 5824 5821 5817 5813 5811 5810 5810 5810 5809 5807 5806 5806 5806 5807 5809 5810 5814 5817 5821 5826 5831 5838
5893 5894 5893 5891 5892 5889 5888 5886 5884 5883 5881 5878 5874 5871 5867 5863 5860 5857 5853 5850 5847 5844 5840 5835 5831 5826 5822 5816 5812 5808 5804 5802 5800 5798 5799 5798 5798 5797 5797 5798 5798 5800 5802 5806 5811 5815 5819 5824 5830
5888 5889 5890 5888 5886 5886 5885 5883 5882 5879 5877 5874 5871 5867 5863 5860 5857 5852 5849 5846 5844 5840 5835 5830 5824 5818 5812 5809 5805 5800 5796 5792 5790 5788 5787 5786 5787 5787 5788 5789 5789 5791 5793 5797 5803 5808 5813 5818 5824
5885 5884 5886 5885 5882 5882 5882 5880 5877 5875 5873 5870 5867 5863 5861 5857 5853 5850 5847 5844 5840 5835 5829 5824 5818 5811 5806 5802 5797 5792 5787 5783 5779 5778 5776 5775 5776 5776 5777 5778 5779 5781 5785 5788 5794 5801 5806 5812 5818
5882 5881 5881 5881 5879 5880 5878 5876 5874 5871 5869 5866 5863 5860 5857 5853 5850 5846 5842 5839 5834 5827 5821 5815 5810 5805 5800 5795 5790 5784 5778 5772 5768 5766 5765 5764 5763 5764 5765 5766 5768 5771 5777 5781 5785 5792 5799 5806 5812
5876 5878 5877 5877 5876 5876 5874 5873 5870 5867 5865 5861 5859 5856 5852 5849 5844 5841 5836 5831 5826 5820 5814 5809 5804 5798 5791 5786 5780 5774 5768 5762 5757 5753 5751 5751 5751 5753 5754 5755 5757 5760 5767 5772 5777 5783 5790 5798 5806
5872 5872 5872 5871 5873 5872 5871 5869 5867 5865 5861 5857 5854 5851 5847 5843 5839 5835 5831 5826 5821 5815 5810 5805 5797 5790 5783 5776 5769 5762 5755 5750 5746 5742 5739 5738 5738 5740 5742 5744 5747 5751 5757 5763 5769 5776 5782 5791 5799
5866 5867 5868 5867 5868 5868 5866 5865 5862 5860 5857 5852 5849 5846 5842 5839 5835 5831 5826 5822 5816 5810 5805 5798 5791 5782 5774 5764 5756 5750 5744 5739 5736 5732 5730 5728 5726 5727 5729 5733 5735 5740 5747 5753 5761 5768 5775 5783 5792
5862 5864 5864 5863 5863 5863 5861 5860 5857 5856 5851 5847 5844 5840 5837 5835 5830 5826 5821 5817 5811 5805 5798 5791 5782 5774 5765 5757 5750 5744 5738 5732 5727 5722 5718 5715 5714 5714 5716 5721 5724 5730 5737 5744 5753 5760 5768 5775 5785
5858 5860 5859 5859 5860 5859 5856 5854 5852 5850 5847 5842 5839 5835 5833 5830 5826 5822 5818 5812 5806 5799 5792 5784 5777 5768 5759 5752 5744 5737 5729 5723 5717 5712 5708 5706 5704 5703 5704 5707 5713 5719 5726 5735 5744 5753 5762 5769 5777
5854 5856 5853 5856 5853 5853 5851 5849 5848 5845 5842 5838 5834 5831 5829 5826 5822 5818 5814 5808 5802 5795 5788 5781 5772 5762 5754 5746 5739 5730 5721 5714 5709 5706 5702 5700 5698 5696 5696 5699 5704 5710 5717 5726 5735 5745 5755 5763 5771
5850 5851 5851 5853 5850 5849 5847 5845 5844 5840 5838 5834 5831 5828 5825 5822 5819 5815 5810 5804 5798 5792 5785 5776 5766 5758 5750 5742 5734 5725 5716 5709 5705 5702 5697 5694 5692 5691 5692 5694 5698 5703 5710 5719 5728 5738 5748 5757 5765
5845 5848 5846 5846 5846 5845 5843 5841 5840 5836 5834 5829 5827 5824 5822 5819 5815 5811 5806 5800 5794 5788 5780 5772 5763 5756 5747 5739 5731 5722 5713 5708 5703 5699 5695 5691 5688 5687 5687 5689 5692 5697 5704 5714 5723 5733 5743 5752 5760
5841 5843 5843 5842 5841 5841 5839 5838 5834 5833 5830 5826 5822 5820 5818 5815 5812 5808 5802 5797 5791 5785 5777 5770 5761 5753 5744 5737 5729 5721 5713 5707 5702 5698 5694 5690 5687 5685 5684 5686 5689 5695 5702 5710 5719 5729 5738 5746 5756
5835 5838 5837 5837 5836 5836 5835 5836 5831 5829 5827 5823 5820 5817 5815 5812 5809 5804 5799 5795 5788 5782 5775 5767 5758 5751 5742 5736 5729 5720 5713 5708 5702 5697 5694 5691 5689 5687 5686 5685 5689 5695 5701 5707 5715 5725 5733 5742 5751
5833 5832 5831 5832 5831 5831 5830 5833 5827 5826 5825 5821 5817 5813 5811 5809 5806 5801 5796 5792 5786 5780 5773 5764 5756 5749 5741 5735 5727 5721 5714 5708 5701 5697 5694 5692 5691 5689 5689 5689 5691 5695 5702 5709 5717 5724 5732 5740 5749
5828 5827 5826 5826 5827 5826 5826 5827 5824 5822 5822 5819 5815 5811 5809 5806 5802 5798 5793 5789 5783 5778 5771 5762 5755 5748 5741 5734 5727 5721 5714 5708 5702 5697 5694 5692 5691 5692 5692 5693 5695 5699 5704 5711 5717 5725 5733 5740 5749
5824 5821 5823 5823 5826 5824 5823 5822 5823 5818 5819 5816 5813 5809 5806 5803 5799 5795 5790 5786 5781 5776 5769 5762 5755 5748 5741 5734 5729 5723 5716 5711 5705 5699 5696 5694 5693 5693 5694 5696 5699 5702 5707 5713 5719 5726 5732 5740 5748
5819 5818 5818 5821 5822 5821 5819 5818 5820 5816 5816 5814 5809 5807 5803 5799 5796 5792 5788 5783 5779 5774 5767 5761 5756 5748 5742 5738 5733 5726 5720 5714 5708 5701 5699 5697 5695 5695 5696 5698 5701 5704 5709 5714 5719 5725 5732 5739 5747
5813 5814 5815 5817 5814 5814 5813 5814 5813 5813 5813 5811 5807 5803 5800 5797 5794 5789 5785 5781 5777 5772 5766 5761 5756 5749 5744 5741 5734 5729 5724 5718 5713 5708 5706 5703 5700 5699 5698 5700 5702 5706 5710 5715 5720 5725 5731 5737 5745
5808 5809 5811 5810 5807 5807 5807 5810 5810 5810 5808 5807 5805 5801 5797 5794 5791 5787 5783 5780 5776 5771 5766 5761 5756 5751 5746 5744 5738 5732 5728 5723 5719 5715 5712 5707 5706 5704 5703 5704 5704 5707 5711 5714 5718 5724 5730 5737 5744
5802 5806 5804 5802 5802 5804 5805 5805 5807 5805 5804 5802 5799 5796 5793 5791 5788 5785 5781 5778 5775 5770 5766 5761 5757 5752 5748 5746 5740 5735 5731 5728 5725 5721 5718 5715 5712 5711 5709 5708 5709 5710 5714 5717 5722 5727 5734 5742 5752
5798 5798 5797 5796 5797 5799 5801 5799 5802 5800 5800 5799 5794 5791 5789 5789 5786 5783 5780 5776 5774 5770 5767 5762 5758 5754 5752 5750 5744 5739 5734 5731 5728 5726 5723 5720 5718 5717 5716 5712 5714 5716 5723 5727 5730 5736 5741 5748 5755
5790 5791 5792 5792 5792 5794 5797 5794 5796 5794 5795 5794 5790 5788 5787 5785 5783 5781 5778 5775 5773 5770 5767 5764 5759 5756 5754 5753 5749 5743 5738 5735 5732 5730 5728 5726 5723 5723 5723 5723 5722 5717 5729 5735 5738 5741 5746 5752 5757
5783 5786 5787 5787 5787 5790 5790 5789 5792 5791 5790 5788 5786 5786 5785 5783 5781 5779 5777 5774 5772 5770 5767 5764 5760 5758 5756 5754 5752 5748 5744 5740 5738 5735 5732 5731 5729 5729 5730 5730 5731 5733 5735 5736 5744 5748 5752 5757 5765
5778 5780 5781 5781 5783 5785 5784 5785 5789 5787 5785 5783 5783 5783 5782 5781 5779 5778 5775 5773 5771 5769 5767 5765 5762 5759 5758 5756 5754 5751 5750 5747 5744 5740 5738 5736 5735 5736 5737 5737 5738 5740 5743 5746 5750 5755 5758 5767 5771
5773 5772 5776 5776 5776 5778 5781 5783 5785 5781 5781 5781 5781 5780 5780 5779 5778 5777 5774 5772 5771 5769 5768 5765 5762 5761 5760 5759 5757 5755 5753 5751 5749 5746 5745 5744 5743 5742 5742 5744 5746 5747 5749 5753 5755 5759 5764 5768 5773
5765 5768 5770 5769 5771 5772 5775 5777 5780 5778 5777 5778 5778 5778 5778 5778 5777 5775 5773 5772 5771 5770 5768 5766 5763 5761 5761 5760 5759 5758 5757 5755 5753 5751 5750 5750 5750 5749 5748 5749 5750 5753 5754 5757 5758 5764 5769 5773 5777
5758 5761 5763 5766 5766 5767 5770 5774 5776 5775 5774 5775 5775 5775 5776 5776 5776 5774 5772 5771 5771 5770 5769 5768 5764 5761 5761 5761 5760 5761 5760 5759 5758 5757 5756 5756 5756 5756 5757 5755 5756 5757 5758 5761 5764 5770 5774 5778 5782
5752 5756 5756 5759 5761 5763 5764 5769 5770 5772 5772 5772 5773 5773 5773 5774 5775 5773 5771 5771 5771 5771 5769 5768 5766 5763 5763 5762 5762 5762 5762 5762 5762 5760 5761 5761 5761 5761 5762 5762 5763 5762 5763 5767 5770 5774 5778 5783 5786